User: anonymous   Login
Location: Unspecified
(0.0000°N, 0.0000°E)
Time: 14:01:16
(UTC+00:00)
Language:

Akebono - Orbit

View from above orbital plane
View from above orbital plane
View from above satellite
View from above satellite

Ground track
Ground track

The orbit data is extracted from the following two-line orbital elements,

1 19822U 89016A   18050.90847379 +.00019593 +34143-6 +36497-3 0  9997
2 19822 075.0354 003.9638 1865066 173.2855 189.7500 11.79024885938320
Epoch (UTC): 19 February 2018 21:48:12
Eccentricity: 0.1865066
inclination: 75.0354°
perigee height: 255 km
apogee height: 3297 km
right ascension of ascending node: 3.9638°
argument of perigee: 173.2855°
revolutions per day: 11.79024885
mean anomaly at epoch: 189.7500°
orbit number at epoch: 93832

The dashed part of the orbit path shows where the satellite is in the earth's shadow,  

DLR